, AK

(GMT )
Valdez Airport

Weather History for PAVD - October, 2012

Change the Weather History Date:

Sunday, October 28, 2012

  Actual Average Record
Temperature  
Mean Temperature 31 °F -  
Max Temperature 39 °F 38 °F 48 °F (2003)
Min Temperature 23 °F 28 °F 12 °F (1982)
Degree Days  
Heating Degree Days 34    
Moisture  
Dew Point 14 °F    
Average Humidity 47    
Maximum Humidity 64    
Minimum Humidity 35    
Precipitation  
Precipitation 0.00 in - - ()
Sea Level Pressure  
Sea Level Pressure 29.97 in    
Wind  
Wind Speed 2 mph (ENE)    
Max Wind Speed 9 mph    
Max Gust Speed -    
Visibility 10 miles    
Events      
Averages and records for this station are not official NWS values.
T = Trace of Precipitation, MM = Missing Value Source: NWS Daily Summary

Daily Weather History Graph

Daily Weather History Graph

Search for Another Location

Airport or City:

Trip Planner

Search our weather history database for the weather conditions in past years. The results will help you decide how hot, cold, wet, or windy it might be!

Date:

Astronomy

Oct. 28, 2012 Rise Set
Actual Time 9:03 AM AKDT 5:52 PM AKDT
Civil Twilight 8:17 AM AKDT 6:39 PM AKDT
Nautical Twilight 7:26 AM AKDT 7:29 PM AKDT
Astronomical Twilight 6:36 AM AKDT 8:19 PM AKDT
Moon 5:14 PM AKDT (10/28) 8:01 AM AKDT (10/28)
Length of Visible Light 10h 22m
Length of Day
8h 49m
Waxing Gibbous, 99% of the Moon is Illuminated
Oct 28
Waxing Gibbous
Oct 29
Full
Nov 6
Last Quarter
Nov 13
New
Nov 20
First Quarter

Hourly Weather History & Observations

Time (AKDT) Temp. Windchill Dew Point Humidity Pressure Visibility Wind Dir Wind Speed Gust Speed Precip Events Conditions
12:16 AM 33.8 °F - 12.2 °F 41% 29.97 in 10.0 mi Calm Calm - N/A   Clear
12:36 AM 33.8 °F 30.8 °F 10.4 °F 38% 29.97 in 10.0 mi West 3.5 mph - N/A   Clear
12:56 AM 33.8 °F 30.8 °F 12.2 °F 41% 29.97 in 10.0 mi WSW 3.5 mph - N/A   Clear
1:16 AM 33.8 °F 29.6 °F 12.2 °F 41% 29.96 in 10.0 mi WSW 4.6 mph - N/A   Clear
1:36 AM 33.8 °F - 8.6 °F 35% 29.96 in 10.0 mi Calm Calm - N/A   Clear
1:56 AM 30.2 °F - 10.4 °F 44% 29.96 in 10.0 mi Calm Calm - N/A   Clear
2:16 AM 28.4 °F - 12.2 °F 51% 29.96 in 10.0 mi Calm Calm - N/A   Clear
2:36 AM 28.4 °F - 10.4 °F 47% 29.96 in 10.0 mi Calm Calm - N/A   Clear
2:56 AM 26.6 °F - 10.4 °F 51% 29.95 in 10.0 mi Calm Calm - N/A   Clear
3:16 AM 28.4 °F - 14.0 °F 55% 29.95 in 10.0 mi Calm Calm - N/A   Clear
3:36 AM 26.6 °F 21.2 °F 12.2 °F 55% 29.95 in 10.0 mi East 4.6 mph - N/A   Clear
3:56 AM 26.6 °F - 12.2 °F 55% 29.95 in 10.0 mi Calm Calm - N/A   Clear
4:16 AM 24.8 °F 19.1 °F 12.2 °F 59% 29.95 in 10.0 mi East 4.6 mph - N/A   Clear
4:36 AM 24.8 °F 16.9 °F 12.2 °F 59% 29.95 in 10.0 mi ENE 6.9 mph - N/A   Clear
4:56 AM 26.6 °F - 14.0 °F 59% 29.95 in 10.0 mi Calm Calm - N/A   Clear
5:16 AM 24.8 °F 19.1 °F 14.0 °F 64% 29.94 in 10.0 mi SE 4.6 mph - N/A   Clear
5:36 AM 24.8 °F - 12.2 °F 59% 29.94 in 10.0 mi Calm Calm - N/A   Clear
5:56 AM 23.0 °F 15.8 °F 8.6 °F 54% 29.95 in 10.0 mi North 5.8 mph - N/A   Clear
6:16 AM 26.6 °F 22.6 °F 10.4 °F 51% 29.94 in 10.0 mi West 3.5 mph - N/A   Clear
6:36 AM 28.4 °F 24.6 °F 12.2 °F 51% 29.94 in 10.0 mi NNW 3.5 mph - N/A   Clear
6:56 AM 28.4 °F 24.6 °F 10.4 °F 47% 29.94 in 10.0 mi WNW 3.5 mph - N/A   Clear
7:16 AM 28.4 °F - 12.2 °F 51% 29.94 in 10.0 mi Calm Calm - N/A   Clear
7:36 AM 26.6 °F - 10.4 °F 51% 29.94 in 10.0 mi Calm Calm - N/A   Clear
7:56 AM 24.8 °F - 12.2 °F 59% 29.94 in 10.0 mi Calm Calm - N/A   Clear
8:16 AM 26.6 °F - 14.0 °F 59% 29.94 in 10.0 mi Calm Calm - N/A   Clear
8:36 AM 24.8 °F 19.1 °F 14.0 °F 64% 29.94 in 10.0 mi NNE 4.6 mph - N/A   Clear
8:56 AM 23.0 °F 18.4 °F 12.2 °F 63% 29.95 in 10.0 mi East 3.5 mph - N/A   Clear
9:16 AM 24.8 °F 19.1 °F 12.2 °F 59% 29.95 in 10.0 mi ENE 4.6 mph - N/A   Clear
9:36 AM 24.8 °F - 10.4 °F 54% 29.95 in 10.0 mi Calm Calm - N/A   Clear
9:56 AM 23.0 °F 17.0 °F 12.2 °F 63% 29.95 in 10.0 mi East 4.6 mph - N/A   Clear
10:16 AM 24.8 °F - 12.2 °F 59% 29.95 in 10.0 mi Calm Calm - N/A   Clear
10:36 AM 28.4 °F - 15.8 °F 59% 29.96 in 10.0 mi Calm Calm - N/A   Clear
10:56 AM 28.4 °F - 15.8 °F 59% 29.96 in 10.0 mi Calm Calm - N/A   Partly Cloudy
11:16 AM 28.4 °F - 15.8 °F 59% 29.96 in 10.0 mi Calm Calm - N/A   Partly Cloudy
11:36 AM 30.2 °F - 15.8 °F 55% 29.96 in 10.0 mi Calm Calm - N/A   Partly Cloudy
11:56 AM 32.0 °F - 15.8 °F 51% 29.96 in 10.0 mi Calm Calm - N/A   Clear
12:16 PM 33.8 °F - 14.0 °F 44% 29.96 in 10.0 mi Calm Calm - N/A   Clear
12:36 PM 33.8 °F - 14.0 °F 44% 29.96 in 10.0 mi Calm Calm - N/A   Clear
12:56 PM 33.8 °F - 15.8 °F 48% 29.96 in 10.0 mi Calm Calm - N/A   Clear
1:16 PM 35.6 °F - 15.8 °F 44% 29.97 in 10.0 mi Calm Calm - N/A   Clear
1:36 PM 35.6 °F - 15.8 °F 44% 29.97 in 10.0 mi Calm Calm - N/A   Clear
1:56 PM 37.4 °F - 15.8 °F 41% 29.97 in 10.0 mi Calm Calm - N/A   Clear
2:16 PM 37.4 °F 34.9 °F 15.8 °F 41% 29.96 in 10.0 mi WNW 3.5 mph - N/A   Clear
2:36 PM 37.4 °F 32.8 °F 15.8 °F 41% 29.96 in 10.0 mi WSW 5.8 mph - N/A   Clear
2:56 PM 39.2 °F 35.0 °F 15.8 °F 39% 29.96 in 10.0 mi WNW 5.8 mph - N/A   Clear
3:16 PM 39.2 °F 35.0 °F 17.6 °F 42% 29.96 in 10.0 mi WSW 5.8 mph - N/A   Clear
3:36 PM 39.2 °F 37.0 °F 17.6 °F 42% 29.96 in 10.0 mi WSW 3.5 mph - N/A   Clear
3:56 PM 39.2 °F - 17.6 °F 42% 29.96 in 10.0 mi Calm Calm - N/A   Clear
4:16 PM 39.2 °F - 17.6 °F 42% 29.96 in 10.0 mi Calm Calm - N/A   Clear
4:36 PM 39.2 °F - 15.8 °F 39% 29.96 in 10.0 mi Calm Calm - N/A   Clear
4:56 PM 39.2 °F - 15.8 °F 39% 29.96 in 10.0 mi Calm Calm - N/A   Partly Cloudy
5:16 PM 39.2 °F 35.0 °F 15.8 °F 39% 29.96 in 10.0 mi South 5.8 mph - N/A   Partly Cloudy
5:36 PM 39.2 °F 35.0 °F 15.8 °F 39% 29.96 in 10.0 mi SSE 5.8 mph - N/A   Partly Cloudy
5:56 PM 37.4 °F - 15.8 °F 41% 29.96 in 10.0 mi Calm Calm - N/A   Partly Cloudy
6:16 PM 37.4 °F 30.8 °F 15.8 °F 41% 29.97 in 10.0 mi East 9.2 mph - N/A   Partly Cloudy
6:36 PM 37.4 °F 33.8 °F 15.8 °F 41% 29.97 in 10.0 mi East 4.6 mph - N/A   Partly Cloudy
6:56 PM 37.4 °F 31.4 °F 14.0 °F 38% 29.98 in 10.0 mi East 8.1 mph - N/A   Clear
7:16 PM 39.2 °F - 15.8 °F 39% 29.98 in 10.0 mi Calm Calm - N/A   Clear
7:36 PM 37.4 °F - 15.8 °F 41% 29.99 in 10.0 mi Calm Calm - N/A   Clear
7:56 PM 37.4 °F - 14.0 °F 38% 29.99 in 10.0 mi Calm Calm - N/A   Clear
8:16 PM 37.4 °F 32.1 °F 15.8 °F 41% 30.00 in 10.0 mi ENE 6.9 mph - N/A   Clear
8:36 PM 37.4 °F 33.8 °F 15.8 °F 41% 30.00 in 10.0 mi ENE 4.6 mph - N/A   Clear
8:56 PM 35.6 °F 29.9 °F 12.2 °F 38% 30.00 in 10.0 mi NE 6.9 mph - N/A   Clear
9:16 PM 35.6 °F 29.2 °F 15.8 °F 44% 30.01 in 10.0 mi NE 8.1 mph - N/A   Clear
9:36 PM 35.6 °F 30.7 °F 15.8 °F 44% 30.01 in 10.0 mi East 5.8 mph - N/A   Clear
9:56 PM 33.8 °F 28.6 °F 12.2 °F 41% 30.00 in 10.0 mi East 5.8 mph - N/A   Clear
10:16 PM 35.6 °F - 14.0 °F 41% 30.00 in 10.0 mi Calm Calm - N/A   Clear
10:36 PM 35.6 °F - 15.8 °F 44% 30.01 in 10.0 mi Calm Calm - N/A   Clear
10:56 PM 35.6 °F 29.9 °F 12.2 °F 38% 30.01 in 10.0 mi SSE 6.9 mph - N/A   Clear
11:16 PM 33.8 °F 28.6 °F 12.2 °F 41% 30.01 in 10.0 mi North 5.8 mph - N/A   Clear
11:36 PM 32.0 °F - 14.0 °F 48% 30.01 in 10.0 mi Calm Calm - N/A   Clear
11:56 PM 33.8 °F - 12.2 °F 41% 30.01 in 10.0 mi Calm Calm - N/A   Clear